IBE15QA LFLL-LEAL

Flight info

Callsign IBE15QA
Flight time N/A
Altitude 39000
Route ROMAM T43 EVALA DCT TUPOX DCT MTG G7 DIVKO UN852 VATIR N852 PIVUS Z237 OKITI M603 IBEBA DCT BAVER M603 GERVU
Aircraft CRJX/M-SDFGIRWY/S

Departure

Time N/A
Airport Lyon Saint-Exupéry Airport (LFLL)

Arrival

Time 2026-05-06 17:25
Airport Alicante-Elche Miguel Hernández Airport (LEAL)
Time Latitude Longitude Altitude Speed Heading
2026-05-06 16:27 41.96767 3.96571 38940 ft 422 kts 212°
2026-05-06 16:27 41.91625 3.92838 38907 ft 423 kts 211°
2026-05-06 16:28 41.86364 3.89257 38935 ft 425 kts 210°
2026-05-06 16:28 41.81069 3.85699 38937 ft 425 kts 210°
2026-05-06 16:29 41.75768 3.82143 38938 ft 426 kts 210°
2026-05-06 16:29 41.70450 3.78578 38928 ft 427 kts 210°
2026-05-06 16:30 41.66033 3.75627 38933 ft 427 kts 210°
2026-05-06 16:30 41.59845 3.71496 38934 ft 427 kts 210°
2026-05-06 16:31 41.54516 3.67950 38932 ft 427 kts 210°
2026-05-06 16:31 41.49191 3.64410 38910 ft 427 kts 210°
2026-05-06 16:32 41.43867 3.60876 38929 ft 427 kts 210°
2026-05-06 16:32 41.38544 3.57348 38934 ft 427 kts 210°
2026-05-06 16:33 41.33214 3.53827 38934 ft 427 kts 210°
2026-05-06 16:34 41.25218 3.48551 38920 ft 427 kts 210°
2026-05-06 16:34 41.19916 3.45065 38923 ft 427 kts 210°
2026-05-06 16:35 41.14425 3.41942 38929 ft 430 kts 205°
2026-05-06 16:35 41.08803 3.39173 38932 ft 431 kts 205°
2026-05-06 16:36 41.03207 3.36327 38924 ft 430 kts 205°
2026-05-06 16:36 40.97641 3.33459 38927 ft 429 kts 205°
2026-05-06 16:37 40.92068 3.30593 38930 ft 429 kts 206°
2026-05-06 16:37 40.86532 3.27747 38925 ft 429 kts 205°
2026-05-06 16:38 40.80962 3.24893 38923 ft 429 kts 206°
2026-05-06 16:38 40.75380 3.22033 38929 ft 429 kts 206°
2026-05-06 16:39 40.69802 3.19183 38930 ft 429 kts 206°
2026-05-06 16:39 40.64219 3.16338 38931 ft 430 kts 205°
2026-05-06 16:40 40.58787 3.13210 38933 ft 426 kts 211°
2026-05-06 16:40 40.53614 3.09402 38932 ft 425 kts 214°
2026-05-06 16:41 40.48461 3.05585 38932 ft 426 kts 212°
2026-05-06 16:41 40.43255 3.01855 38917 ft 426 kts 212°
2026-05-06 16:42 40.38048 2.98129 38930 ft 426 kts 212°
2026-05-06 16:42 40.32836 2.94405 38935 ft 426 kts 212°
2026-05-06 16:43 40.27618 2.90687 38935 ft 427 kts 212°
2026-05-06 16:43 40.22433 2.86998 38933 ft 427 kts 212°
2026-05-06 16:44 40.17208 2.83286 38924 ft 426 kts 212°
2026-05-06 16:44 40.11986 2.79584 38931 ft 426 kts 212°
2026-05-06 16:45 40.06768 2.75890 38935 ft 426 kts 212°
2026-05-06 16:45 40.01550 2.72201 38935 ft 427 kts 212°
2026-05-06 16:46 39.96324 2.68515 38932 ft 426 kts 212°
2026-05-06 16:46 39.91135 2.64864 38941 ft 427 kts 213°
2026-05-06 16:47 39.85910 2.61190 38937 ft 427 kts 213°
2026-05-06 16:47 39.80681 2.57521 38937 ft 427 kts 212°
2026-05-06 16:48 39.75451 2.53857 38928 ft 426 kts 213°
2026-05-06 16:48 39.70236 2.50207 38935 ft 426 kts 213°
2026-05-06 16:49 39.65003 2.46550 38946 ft 426 kts 213°
2026-05-06 16:49 39.59893 2.42787 38936 ft 421 kts 221°
2026-05-06 16:50 39.55797 2.37459 38955 ft 417 kts 229°
2026-05-06 16:50 39.51876 2.31920 38938 ft 416 kts 231°
2026-05-06 16:51 39.48551 2.25878 38943 ft 414 kts 242°
2026-05-06 16:51 39.45845 2.19305 38927 ft 414 kts 242°
2026-05-06 16:52 39.42964 2.12852 38923 ft 414 kts 240°
2026-05-06 16:52 39.40047 2.06429 38920 ft 414 kts 240°
2026-05-06 16:53 39.37131 2.00000 38925 ft 414 kts 240°
2026-05-06 16:53 39.34212 1.93576 38927 ft 414 kts 240°
2026-05-06 16:54 39.31309 1.87200 38913 ft 414 kts 240°
2026-05-06 16:54 39.28385 1.80787 38914 ft 414 kts 240°
2026-05-06 16:55 39.25458 1.74386 38925 ft 414 kts 240°
2026-05-06 16:55 39.22527 1.67986 38914 ft 414 kts 240°
2026-05-06 16:56 39.19590 1.61587 38913 ft 414 kts 240°
2026-05-06 16:56 39.16649 1.55193 38722 ft 416 kts 240°
2026-05-06 16:56 39.15173 1.51988 38548 ft 416 kts 240°
2026-05-06 16:57 39.13713 1.48818 38289 ft 417 kts 240°
2026-05-06 16:57 39.12268 1.45588 38088 ft 416 kts 243°
2026-05-06 16:57 39.10997 1.42233 38058 ft 416 kts 246°
2026-05-06 16:57 39.09859 1.38824 37839 ft 415 kts 248°
2026-05-06 16:58 39.09159 1.36522 37606 ft 414 kts 249°
2026-05-06 16:58 39.08145 1.33055 37237 ft 414 kts 249°
2026-05-06 16:58 39.07135 1.29586 36800 ft 413 kts 249°
2026-05-06 16:58 39.06112 1.26133 36375 ft 413 kts 248°
2026-05-06 16:59 39.05064 1.22690 35948 ft 412 kts 248°
2026-05-06 16:59 39.04016 1.19264 35523 ft 411 kts 248°
2026-05-06 16:59 39.02964 1.15831 35095 ft 411 kts 248°
2026-05-06 16:59 39.01916 1.12415 34682 ft 410 kts 248°
2026-05-06 17:00 39.00871 1.09011 34259 ft 409 kts 248°
2026-05-06 17:00 38.99827 1.05613 33825 ft 408 kts 248°
2026-05-06 17:00 38.98785 1.02216 33237 ft 409 kts 248°
2026-05-06 17:00 38.97735 0.98806 32587 ft 412 kts 248°
2026-05-06 17:01 38.96688 0.95415 31944 ft 414 kts 248°
2026-05-06 17:01 38.95606 0.91956 31290 ft 417 kts 248°
2026-05-06 17:01 38.94539 0.88496 30835 ft 415 kts 248°
2026-05-06 17:01 38.93476 0.85046 30444 ft 413 kts 248°
2026-05-06 17:02 38.92417 0.81624 30072 ft 412 kts 248°
2026-05-06 17:02 38.91359 0.78214 29679 ft 410 kts 248°
2026-05-06 17:02 38.90306 0.74823 29351 ft 407 kts 248°
2026-05-06 17:02 38.89263 0.71452 28982 ft 405 kts 248°
2026-05-06 17:03 38.88221 0.68099 28636 ft 402 kts 248°
2026-05-06 17:03 38.87195 0.64817 28121 ft 400 kts 248°
2026-05-06 17:03 38.86157 0.61516 27412 ft 397 kts 248°
2026-05-06 17:03 38.85134 0.58239 26775 ft 395 kts 248°
2026-05-06 17:04 38.84112 0.54979 26178 ft 392 kts 248°
2026-05-06 17:04 38.83099 0.51743 25397 ft 388 kts 248°
2026-05-06 17:04 38.82112 0.48529 24488 ft 386 kts 249°
2026-05-06 17:04 38.81272 0.45272 23625 ft 383 kts 253°
2026-05-06 17:05 38.80574 0.41985 22651 ft 381 kts 255°
2026-05-06 17:05 38.79931 0.38706 21718 ft 378 kts 255°
2026-05-06 17:05 38.79288 0.35442 20910 ft 377 kts 255°
2026-05-06 17:05 38.78632 0.32191 20249 ft 375 kts 255°
2026-05-06 17:06 38.77959 0.28968 19612 ft 374 kts 255°
2026-05-06 17:06 38.77280 0.25765 19001 ft 372 kts 255°
2026-05-06 17:06 38.76608 0.22572 18411 ft 370 kts 255°
2026-05-06 17:06 38.75942 0.19432 17922 ft 369 kts 255°
2026-05-06 17:07 38.75270 0.16264 17423 ft 368 kts 255°
2026-05-06 17:07 38.74601 0.13106 16955 ft 366 kts 255°
2026-05-06 17:07 38.73930 0.09968 16513 ft 364 kts 255°
2026-05-06 17:07 38.73266 0.06844 16073 ft 363 kts 255°
2026-05-06 17:08 38.72605 0.03731 15655 ft 361 kts 255°
2026-05-06 17:08 38.71942 0.00629 15241 ft 360 kts 255°
2026-05-06 17:08 38.71283 -0.02459 14785 ft 360 kts 255°
2026-05-06 17:08 38.70620 -0.05536 14420 ft 358 kts 255°
2026-05-06 17:09 38.69959 -0.08609 14025 ft 357 kts 255°
2026-05-06 17:09 38.69306 -0.11668 13632 ft 356 kts 255°
2026-05-06 17:09 38.68647 -0.14716 13168 ft 354 kts 255°
2026-05-06 17:09 38.68004 -0.17744 12756 ft 352 kts 255°
2026-05-06 17:10 38.67349 -0.20712 12358 ft 350 kts 255°
2026-05-06 17:10 38.66686 -0.23707 11993 ft 348 kts 254°
2026-05-06 17:10 38.66025 -0.26678 11579 ft 346 kts 255°
2026-05-06 17:10 38.65376 -0.29641 11194 ft 344 kts 255°
2026-05-06 17:11 38.64736 -0.32572 10836 ft 340 kts 256°
2026-05-06 17:11 38.64107 -0.35494 10431 ft 339 kts 256°
2026-05-06 17:11 38.63484 -0.38405 10000 ft 339 kts 255°
2026-05-06 17:11 38.62857 -0.41303 9613 ft 336 kts 255°
2026-05-06 17:12 38.62236 -0.44141 9096 ft 335 kts 255°
2026-05-06 17:12 38.61606 -0.47003 8617 ft 334 kts 256°
2026-05-06 17:12 38.60986 -0.49852 8178 ft 331 kts 255°
2026-05-06 17:12 38.60365 -0.52697 7570 ft 334 kts 255°
2026-05-06 17:13 38.59741 -0.55543 7228 ft 329 kts 255°
2026-05-06 17:13 38.59133 -0.58318 7065 ft 318 kts 255°
2026-05-06 17:13 38.58541 -0.60998 6986 ft 308 kts 255°
2026-05-06 17:13 38.57973 -0.63584 6946 ft 297 kts 255°
2026-05-06 17:14 38.57420 -0.66088 6914 ft 289 kts 255°
2026-05-06 17:14 38.56884 -0.68520 6899 ft 280 kts 255°
2026-05-06 17:14 38.56362 -0.70887 6910 ft 273 kts 255°
2026-05-06 17:14 38.55850 -0.73208 6912 ft 268 kts 255°
2026-05-06 17:15 38.55339 -0.75499 6911 ft 268 kts 255°
2026-05-06 17:15 38.54826 -0.77801 6948 ft 270 kts 255°
2026-05-06 17:15 38.54277 -0.80106 6932 ft 272 kts 253°
2026-05-06 17:15 38.53634 -0.82380 6903 ft 274 kts 244°
2026-05-06 17:16 38.52551 -0.84344 6845 ft 273 kts 230°
2026-05-06 17:16 38.51229 -0.86097 6366 ft 275 kts 226°
2026-05-06 17:16 38.49839 -0.87779 5952 ft 275 kts 224°
2026-05-06 17:16 38.48428 -0.89428 5536 ft 274 kts 221°
2026-05-06 17:17 38.46974 -0.90989 5241 ft 273 kts 217°
2026-05-06 17:17 38.45427 -0.92442 5115 ft 278 kts 212°
2026-05-06 17:17 38.43791 -0.93755 5068 ft 279 kts 209°
2026-05-06 17:17 38.42089 -0.94965 5046 ft 279 kts 206°
2026-05-06 17:18 38.40339 -0.96030 5033 ft 278 kts 201°
2026-05-06 17:18 38.38517 -0.96805 5011 ft 276 kts 184°
2026-05-06 17:18 38.36645 -0.96449 5020 ft 272 kts 161°
2026-05-06 17:18 38.34873 -0.95608 5037 ft 271 kts 158°
2026-05-06 17:19 38.33177 -0.94593 5012 ft 270 kts 142°
2026-05-06 17:19 38.32025 -0.92755 5016 ft 267 kts 112°
2026-05-06 17:19 38.31729 -0.90499 5031 ft 256 kts 84°
2026-05-06 17:19 38.32077 -0.88316 4961 ft 250 kts 81°
2026-05-06 17:20 38.32064 -0.86115 4590 ft 254 kts 94°
2026-05-06 17:20 38.31933 -0.83867 4237 ft 255 kts 95°
2026-05-06 17:20 38.31770 -0.81629 3911 ft 251 kts 97°
2026-05-06 17:20 38.31491 -0.79466 3552 ft 245 kts 101°
2026-05-06 17:21 38.31210 -0.77362 3239 ft 238 kts 101°
2026-05-06 17:21 38.30930 -0.75312 2937 ft 232 kts 101°
2026-05-06 17:21 38.30650 -0.73337 2654 ft 222 kts 99°
2026-05-06 17:21 38.30381 -0.71434 2401 ft 215 kts 99°
2026-05-06 17:22 38.30129 -0.69590 2059 ft 204 kts 99°
2026-05-06 17:22 38.29894 -0.67903 1778 ft 181 kts 100°
2026-05-06 17:22 38.29699 -0.66439 1612 ft 156 kts 100°
2026-05-06 17:22 38.29511 -0.65125 1349 ft 147 kts 99°
2026-05-06 17:23 38.29332 -0.63890 1158 ft 137 kts 99°
2026-05-06 17:23 38.29200 -0.62781 1034 ft 117 kts 100°
2026-05-06 17:23 38.29071 -0.61848 821 ft 101 kts 99°
2026-05-06 17:23 38.28946 -0.60982 558 ft 106 kts 102°
2026-05-06 17:24 38.28810 -0.59942 595 ft 133 kts 99°
2026-05-06 17:24 38.28627 -0.58773 582 ft 130 kts 100°
2026-05-06 17:24 38.28466 -0.57636 281 ft 129 kts 98°
2026-05-06 17:24 38.28323 -0.56553 123 ft 117 kts 98°
2026-05-06 17:25 38.28199 -0.55674 100 ft 76 kts 100°
2026-05-06 17:25 38.28133 -0.55204 82 ft 33 kts 100°
2026-05-06 17:25 38.28138 -0.54925 75 ft 32 kts 76°
2026-05-06 17:25 38.28205 -0.54762 62 ft 15 kts 12°
2026-05-06 17:26 38.28252 -0.54808 70 ft 13 kts 280°
2026-05-06 17:26 38.28279 -0.55000 74 ft 26 kts 281°
2026-05-06 17:26 38.28313 -0.55180 86 ft 18 kts 304°
2026-05-06 17:26 38.28389 -0.55182 88 ft 10 kts 24°
2026-05-06 17:27 38.28442 -0.55238 89 ft 16 kts 277°
2026-05-06 17:27 38.28398 -0.55311 91 ft 0 kts 220°